AAL2615 KIAH-KDFW

Flight info

Callsign AAL2615
Flight time 0h 49m
Altitude 30000
Route BLTWY7 CRIED BEREE3
Aircraft A321/M-SDE3FGHIRWY/LB1

Departure

Time 2026-05-05 00:20
Airport George Bush Intercontinental Airport (KIAH)

Arrival

Time 2026-05-05 01:09
Airport Dallas Fort Worth International Airport (KDFW)
Time Latitude Longitude Altitude Speed Heading
2026-05-05 00:02 29.98471 -95.34740 99 ft 0 kts 41°
2026-05-05 00:08 29.98467 -95.34744 101 ft 2 kts 41°
2026-05-05 00:08 29.98452 -95.34759 98 ft 3 kts 42°
2026-05-05 00:09 29.98437 -95.34775 98 ft 3 kts 38°
2026-05-05 00:09 29.98421 -95.34788 99 ft 3 kts 31°
2026-05-05 00:09 29.98403 -95.34799 99 ft 3 kts 22°
2026-05-05 00:09 29.98384 -95.34807 98 ft 3 kts
2026-05-05 00:10 29.98372 -95.34808 98 ft 0 kts
2026-05-05 00:12 29.98377 -95.34809 98 ft 0 kts 350°
2026-05-05 00:13 29.98388 -95.34820 101 ft 4 kts 307°
2026-05-05 00:13 29.98393 -95.34868 102 ft 7 kts 275°
2026-05-05 00:13 29.98392 -95.34923 100 ft 7 kts 268°
2026-05-05 00:13 29.98391 -95.34965 99 ft 3 kts 268°
2026-05-05 00:14 29.98391 -95.34977 100 ft 0 kts 268°
2026-05-05 00:15 29.98390 -95.35016 99 ft 11 kts 269°
2026-05-05 00:16 29.98392 -95.35128 101 ft 16 kts 269°
2026-05-05 00:16 29.98381 -95.35250 100 ft 9 kts 259°
2026-05-05 00:16 29.98383 -95.35319 99 ft 10 kts 298°
2026-05-05 00:16 29.98448 -95.35366 101 ft 13 kts 333°
2026-05-05 00:17 29.98535 -95.35415 102 ft 15 kts 333°
2026-05-05 00:17 29.98637 -95.35475 100 ft 19 kts 334°
2026-05-05 00:17 29.98754 -95.35545 103 ft 20 kts 330°
2026-05-05 00:17 29.98840 -95.35600 100 ft 12 kts 330°
2026-05-05 00:18 29.98846 -95.35647 101 ft 2 kts 237°
2026-05-05 00:18 29.98830 -95.35674 102 ft 4 kts 239°
2026-05-05 00:18 29.98820 -95.35695 102 ft 1 kts 240°
2026-05-05 00:18 29.98816 -95.35704 102 ft 5 kts 240°
2026-05-05 00:19 29.98785 -95.35770 103 ft 6 kts 242°
2026-05-05 00:19 29.98762 -95.35769 105 ft 4 kts 161°
2026-05-05 00:19 29.98672 -95.35715 104 ft 37 kts 152°
2026-05-05 00:19 29.98237 -95.35450 101 ft 107 kts 152°
2026-05-05 00:20 29.97362 -95.34914 151 ft 171 kts 152°
2026-05-05 00:20 29.96335 -95.34234 1091 ft 173 kts 149°
2026-05-05 00:20 29.95618 -95.33039 1661 ft 197 kts 110°
2026-05-05 00:20 29.95725 -95.31348 1830 ft 234 kts 72°
2026-05-05 00:21 29.96870 -95.29866 2023 ft 268 kts 30°
2026-05-05 00:21 29.98725 -95.29391 2569 ft 283 kts 355°
2026-05-05 00:21 30.00655 -95.29832 3333 ft 283 kts 339°
2026-05-05 00:21 30.02492 -95.30633 4207 ft 282 kts 333°
2026-05-05 00:22 30.04282 -95.31522 5140 ft 278 kts 333°
2026-05-05 00:22 30.06066 -95.32389 5972 ft 279 kts 334°
2026-05-05 00:22 30.07845 -95.33193 6727 ft 278 kts 336°
2026-05-05 00:22 30.09694 -95.33977 7424 ft 281 kts 337°
2026-05-05 00:23 30.11545 -95.34725 8156 ft 282 kts 338°
2026-05-05 00:23 30.13410 -95.35458 8880 ft 283 kts 338°
2026-05-05 00:23 30.15253 -95.36169 9610 ft 284 kts 338°
2026-05-05 00:23 30.17134 -95.36888 10013 ft 286 kts 338°
2026-05-05 00:24 30.19084 -95.37633 10330 ft 302 kts 338°
2026-05-05 00:24 30.21144 -95.38425 10450 ft 322 kts 338°
2026-05-05 00:24 30.23320 -95.39259 10725 ft 334 kts 339°
2026-05-05 00:24 30.25511 -95.40094 11260 ft 337 kts 339°
2026-05-05 00:25 30.27704 -95.40925 12438 ft 318 kts 338°
2026-05-05 00:25 30.29790 -95.41719 12966 ft 328 kts 339°
2026-05-05 00:25 30.32070 -95.42344 13215 ft 343 kts 344°
2026-05-05 00:25 30.34420 -95.42922 13717 ft 347 kts 344°
2026-05-05 00:26 30.36792 -95.43501 14224 ft 350 kts 344°
2026-05-05 00:26 30.39183 -95.44082 14732 ft 352 kts 344°
2026-05-05 00:26 30.41583 -95.44665 15256 ft 354 kts 343°
2026-05-05 00:26 30.43995 -95.45254 15767 ft 355 kts 343°
2026-05-05 00:27 30.46420 -95.45847 16276 ft 357 kts 343°
2026-05-05 00:27 30.48856 -95.46444 16762 ft 359 kts 343°
2026-05-05 00:27 30.51308 -95.47043 17253 ft 361 kts 343°
2026-05-05 00:27 30.53778 -95.47622 17732 ft 363 kts 343°
2026-05-05 00:28 30.56263 -95.48182 18167 ft 365 kts 343°
2026-05-05 00:28 30.58771 -95.48735 18541 ft 367 kts 344°
2026-05-05 00:28 30.61241 -95.49277 18937 ft 368 kts 343°
2026-05-05 00:28 30.63779 -95.49837 19327 ft 369 kts 343°
2026-05-05 00:29 30.66293 -95.50397 19695 ft 370 kts 343°
2026-05-05 00:29 30.68828 -95.50967 20059 ft 371 kts 343°
2026-05-05 00:29 30.71323 -95.51532 20410 ft 372 kts 343°
2026-05-05 00:29 30.73866 -95.52111 20778 ft 373 kts 342°
2026-05-05 00:30 30.76411 -95.52690 21130 ft 374 kts 342°
2026-05-05 00:30 30.78971 -95.53277 21485 ft 375 kts 342°
2026-05-05 00:30 30.81567 -95.53871 21845 ft 376 kts 342°
2026-05-05 00:30 30.84109 -95.54449 22209 ft 378 kts 342°
2026-05-05 00:31 30.86692 -95.55034 22598 ft 378 kts 342°
2026-05-05 00:31 30.89315 -95.55626 22988 ft 379 kts 342°
2026-05-05 00:31 30.91910 -95.56213 23372 ft 381 kts 342°
2026-05-05 00:31 30.94513 -95.56803 23701 ft 382 kts 341°
2026-05-05 00:32 30.97125 -95.57399 24011 ft 383 kts 341°
2026-05-05 00:32 30.99739 -95.57999 24328 ft 384 kts 341°
2026-05-05 00:32 31.02362 -95.58598 24647 ft 385 kts 341°
2026-05-05 00:32 31.04997 -95.59194 24965 ft 386 kts 341°
2026-05-05 00:33 31.07640 -95.59791 25295 ft 387 kts 341°
2026-05-05 00:33 31.10280 -95.60391 25623 ft 387 kts 341°
2026-05-05 00:33 31.12928 -95.60995 25978 ft 388 kts 341°
2026-05-05 00:33 31.15579 -95.61597 26331 ft 388 kts 341°
2026-05-05 00:34 31.18232 -95.62202 26645 ft 389 kts 341°
2026-05-05 00:34 31.20892 -95.62810 26944 ft 390 kts 340°
2026-05-05 00:34 31.23556 -95.63424 27235 ft 391 kts 340°
2026-05-05 00:34 31.26234 -95.64041 27527 ft 393 kts 340°
2026-05-05 00:35 31.28919 -95.64660 27820 ft 394 kts 340°
2026-05-05 00:35 31.31611 -95.65280 28099 ft 395 kts 340°
2026-05-05 00:35 31.34283 -95.65995 28366 ft 391 kts 335°
2026-05-05 00:35 31.36779 -95.67171 28630 ft 384 kts 326°
2026-05-05 00:36 31.39072 -95.68750 28879 ft 382 kts 323°
2026-05-05 00:36 31.41309 -95.70355 29174 ft 383 kts 323°
2026-05-05 00:36 31.43588 -95.71982 29400 ft 384 kts 323°
2026-05-05 00:36 31.45879 -95.73612 29632 ft 385 kts 323°
2026-05-05 00:37 31.48173 -95.75243 29824 ft 386 kts 323°
2026-05-05 00:37 31.52664 -95.78432 29889 ft 374 kts 322°
2026-05-05 00:38 31.57178 -95.81677 29885 ft 385 kts 322°
2026-05-05 00:38 31.61761 -95.84982 29882 ft 388 kts 322°
2026-05-05 00:39 31.66364 -95.88286 29898 ft 388 kts 323°
2026-05-05 00:39 31.70987 -95.91600 29885 ft 390 kts 323°
2026-05-05 00:40 31.75623 -95.94927 29869 ft 391 kts 323°
2026-05-05 00:40 31.80263 -95.98260 29885 ft 390 kts 323°
2026-05-05 00:41 31.84886 -96.01601 29860 ft 390 kts 322°
2026-05-05 00:41 31.89513 -96.04943 29859 ft 390 kts 323°
2026-05-05 00:42 31.94143 -96.08281 29890 ft 391 kts 322°
2026-05-05 00:42 31.98782 -96.11633 29058 ft 391 kts 322°
2026-05-05 00:42 32.01077 -96.13281 28679 ft 379 kts 322°
2026-05-05 00:43 32.03292 -96.14862 28386 ft 367 kts 322°
2026-05-05 00:43 32.05456 -96.16411 27826 ft 361 kts 322°
2026-05-05 00:43 32.07589 -96.17949 27229 ft 357 kts 322°
2026-05-05 00:43 32.09695 -96.19476 26626 ft 354 kts 322°
2026-05-05 00:44 32.11779 -96.20990 26053 ft 350 kts 322°
2026-05-05 00:44 32.13848 -96.22493 25461 ft 347 kts 322°
2026-05-05 00:44 32.15898 -96.23979 24864 ft 344 kts 322°
2026-05-05 00:44 32.17919 -96.25442 24408 ft 338 kts 322°
2026-05-05 00:45 32.19903 -96.26881 23989 ft 331 kts 322°
2026-05-05 00:45 32.21844 -96.28292 23543 ft 325 kts 322°
2026-05-05 00:45 32.23749 -96.29680 23087 ft 318 kts 322°
2026-05-05 00:45 32.25612 -96.31033 22673 ft 311 kts 322°
2026-05-05 00:46 32.27404 -96.32394 22290 ft 302 kts 318°
2026-05-05 00:46 32.28985 -96.34003 21917 ft 299 kts 312°
2026-05-05 00:46 32.30473 -96.35726 21547 ft 300 kts 312°
2026-05-05 00:46 32.31947 -96.37425 21179 ft 300 kts 312°
2026-05-05 00:47 32.33465 -96.39168 20790 ft 300 kts 312°
2026-05-05 00:47 32.34964 -96.40889 20404 ft 301 kts 312°
2026-05-05 00:47 32.36444 -96.42593 20022 ft 301 kts 313°
2026-05-05 00:47 32.37949 -96.44323 19636 ft 302 kts 313°
2026-05-05 00:48 32.39459 -96.46057 19243 ft 302 kts 313°
2026-05-05 00:48 32.40968 -96.47792 18849 ft 303 kts 312°
2026-05-05 00:48 32.42481 -96.49534 18462 ft 304 kts 312°
2026-05-05 00:48 32.43986 -96.51268 18119 ft 298 kts 313°
2026-05-05 00:49 32.45461 -96.52966 17832 ft 295 kts 313°
2026-05-05 00:49 32.46930 -96.54660 17466 ft 294 kts 313°
2026-05-05 00:49 32.48387 -96.56345 17087 ft 292 kts 313°
2026-05-05 00:49 32.49375 -96.57487 16840 ft 299 kts 313°
2026-05-05 00:50 32.50905 -96.59249 16459 ft 311 kts 313°
2026-05-05 00:50 32.52468 -96.61042 16072 ft 313 kts 313°
2026-05-05 00:50 32.54036 -96.62832 15683 ft 313 kts 313°
2026-05-05 00:50 32.55602 -96.64614 15291 ft 312 kts 313°
2026-05-05 00:51 32.57156 -96.66383 14882 ft 311 kts 313°
2026-05-05 00:51 32.58738 -96.68173 14201 ft 316 kts 313°
2026-05-05 00:51 32.60316 -96.69951 13836 ft 310 kts 313°
2026-05-05 00:51 32.61852 -96.71676 13707 ft 297 kts 313°
2026-05-05 00:52 32.63316 -96.73318 13587 ft 284 kts 313°
2026-05-05 00:52 32.64728 -96.74902 13321 ft 276 kts 313°
2026-05-05 00:52 32.66110 -96.76462 12988 ft 271 kts 313°
2026-05-05 00:52 32.67462 -96.77996 12899 ft 269 kts 313°
2026-05-05 00:53 32.68811 -96.79534 12798 ft 269 kts 312°
2026-05-05 00:53 32.70159 -96.81069 12700 ft 269 kts 313°
2026-05-05 00:53 32.71512 -96.82605 12609 ft 269 kts 313°
2026-05-05 00:53 32.72865 -96.84141 12499 ft 269 kts 312°
2026-05-05 00:54 32.74220 -96.85680 12392 ft 269 kts 312°
2026-05-05 00:54 32.75567 -96.87211 12299 ft 267 kts 312°
2026-05-05 00:54 32.76879 -96.88696 12201 ft 254 kts 312°
2026-05-05 00:54 32.78130 -96.90098 12105 ft 243 kts 315°
2026-05-05 00:55 32.79584 -96.91141 12015 ft 249 kts 334°
2026-05-05 00:55 32.81318 -96.91506 11802 ft 259 kts 353°
2026-05-05 00:55 32.83122 -96.91488 11581 ft 259 kts 353°
2026-05-05 00:55 32.84920 -96.91469 11358 ft 259 kts 353°
2026-05-05 00:56 32.86719 -96.91454 11142 ft 258 kts 353°
2026-05-05 00:56 32.88514 -96.91441 10925 ft 258 kts 353°
2026-05-05 00:56 32.90308 -96.91427 10708 ft 258 kts 353°
2026-05-05 00:56 32.92101 -96.91413 10483 ft 257 kts 353°
2026-05-05 00:57 32.93888 -96.91399 10269 ft 256 kts 353°
2026-05-05 00:57 32.95671 -96.91389 10053 ft 256 kts 353°
2026-05-05 00:57 32.97452 -96.91380 9846 ft 256 kts 353°
2026-05-05 00:57 32.99193 -96.91370 9623 ft 255 kts 353°
2026-05-05 00:58 33.00976 -96.91360 9385 ft 255 kts 353°
2026-05-05 00:58 33.02745 -96.91348 9182 ft 255 kts 354°
2026-05-05 00:58 33.04515 -96.91336 8966 ft 254 kts 354°
2026-05-05 00:58 33.06284 -96.91323 8733 ft 254 kts 354°
2026-05-05 00:59 33.08025 -96.91312 8527 ft 253 kts 354°
2026-05-05 00:59 33.09788 -96.91300 8308 ft 253 kts 354°
2026-05-05 00:59 33.11547 -96.91289 8104 ft 253 kts 354°
2026-05-05 00:59 33.13306 -96.91279 7893 ft 253 kts 354°
2026-05-05 01:00 33.15066 -96.91270 7686 ft 253 kts 354°
2026-05-05 01:00 33.16826 -96.91263 7469 ft 253 kts 354°
2026-05-05 01:00 33.18583 -96.91253 7259 ft 253 kts 354°
2026-05-05 01:00 33.20319 -96.91396 7060 ft 244 kts 335°
2026-05-05 01:01 33.21613 -96.92506 6891 ft 225 kts 296°
2026-05-05 01:01 33.21954 -96.94247 6731 ft 217 kts 259°
2026-05-05 01:01 33.21545 -96.95982 6568 ft 218 kts 252°
2026-05-05 01:01 33.21086 -96.97711 6408 ft 219 kts 252°
2026-05-05 01:02 33.20609 -96.99431 6222 ft 215 kts 247°
2026-05-05 01:02 33.19795 -97.00913 5862 ft 213 kts 227°
2026-05-05 01:02 33.18626 -97.01935 5638 ft 206 kts 209°
2026-05-05 01:02 33.17267 -97.02423 5412 ft 204 kts 191°
2026-05-05 01:03 33.15852 -97.02467 5165 ft 202 kts 185°
2026-05-05 01:03 33.14483 -97.02472 4930 ft 193 kts 186°
2026-05-05 01:03 33.13174 -97.02478 4685 ft 183 kts 186°
2026-05-05 01:03 33.11929 -97.02485 4450 ft 174 kts 186°
2026-05-05 01:04 33.10739 -97.02492 4229 ft 168 kts 186°
2026-05-05 01:04 33.08481 -97.02505 3796 ft 157 kts 185°
2026-05-05 01:04 33.07415 -97.02510 3606 ft 150 kts 185°
2026-05-05 01:05 33.06391 -97.02516 3414 ft 145 kts 184°
2026-05-05 01:05 33.05385 -97.02522 3229 ft 143 kts 184°
2026-05-05 01:05 33.04384 -97.02528 3056 ft 144 kts 182°
2026-05-05 01:05 33.03389 -97.02534 2867 ft 142 kts 184°
2026-05-05 01:06 33.02401 -97.02539 2683 ft 142 kts 182°
2026-05-05 01:06 33.01414 -97.02545 2499 ft 142 kts 182°
2026-05-05 01:06 33.00428 -97.02550 2316 ft 141 kts 182°
2026-05-05 01:06 32.99450 -97.02555 2154 ft 140 kts 181°
2026-05-05 01:07 32.98479 -97.02560 1960 ft 139 kts 181°
2026-05-05 01:07 32.97505 -97.02565 1775 ft 141 kts 180°
2026-05-05 01:07 32.96527 -97.02571 1592 ft 140 kts 179°
2026-05-05 01:07 32.95543 -97.02577 1385 ft 143 kts 181°
2026-05-05 01:08 32.94558 -97.02581 1203 ft 142 kts 181°
2026-05-05 01:08 32.93573 -97.02584 1030 ft 144 kts 181°
2026-05-05 01:08 32.92580 -97.02599 820 ft 139 kts 178°
2026-05-05 01:08 32.91626 -97.02597 629 ft 136 kts 180°
2026-05-05 01:09 32.90721 -97.02603 576 ft 119 kts 180°
2026-05-05 01:09 32.90064 -97.02607 575 ft 67 kts 180°
2026-05-05 01:09 32.89733 -97.02611 569 ft 34 kts 186°
2026-05-05 01:09 32.89540 -97.02703 572 ft 25 kts 210°
2026-05-05 01:10 32.89407 -97.02793 572 ft 9 kts 215°
2026-05-05 01:10 32.89394 -97.02848 572 ft 5 kts 268°
2026-05-05 01:10 32.89393 -97.02870 573 ft 2 kts 270°
2026-05-05 01:10 32.89396 -97.02927 575 ft 12 kts 274°
2026-05-05 01:11 32.89401 -97.03016 582 ft 10 kts 274°
2026-05-05 01:11 32.89406 -97.03092 576 ft 8 kts 274°
2026-05-05 01:11 32.89410 -97.03155 576 ft 8 kts 274°
2026-05-05 01:11 32.89399 -97.03216 581 ft 5 kts 261°
2026-05-05 01:12 32.89398 -97.03228 582 ft 2 kts 263°
2026-05-05 01:12 32.89396 -97.03278 583 ft 10 kts 269°
2026-05-05 01:12 32.89396 -97.03381 586 ft 12 kts 270°
2026-05-05 01:12 32.89396 -97.03480 586 ft 14 kts 271°
2026-05-05 01:13 32.89398 -97.03605 586 ft 14 kts 270°
2026-05-05 01:13 32.89398 -97.03702 586 ft 10 kts 269°
2026-05-05 01:13 32.89400 -97.03766 586 ft 5 kts 289°
2026-05-05 01:13 32.89421 -97.03778 587 ft 4 kts 354°
2026-05-05 01:14 32.89455 -97.03782 587 ft 4 kts 353°
2026-05-05 01:14 32.89472 -97.03784 587 ft 1 kts 353°
2026-05-05 01:14 32.89473 -97.03785 587 ft 0 kts 353°
2026-05-05 01:18 32.89472 -97.03784 588 ft 0 kts 353°